Regional Weather Roundup
Issued by NWS

Home | Current Version | Previous Version | Graphics & Text | Print | Product List | Glossary On
Versions: 1 2 3 4 5 6 7 8 9 10 11 12 13 14 15 16 17 18 19 20 21 22 23 24 25 26 27 28 29 30 31 32 33 34 35 36 37 38 39 40 41 42 43 44 45 46 47 48 49 50
793
ASUS43 KLMK 250910
RWRKY
KENTUCKY REGIONAL WEATHER ROUNDUP
NATIONAL WEATHER SERVICE LOUISVILLE KY
500 AM EDT SUN JUN 25 2017

NOTE "FAIR" INDICATES FEW OR NO CLOUDS BELOW 12,000 FEET
WITH NO SIGNIFICANT WEATHER AND/OR OBSTRUCTIONS TO VISIBILITY.

KYZ001>023-026-027-061>063-070>075-251000-
WESTERN AND SOUTH CENTRAL KENTUCKY

CITY           SKY/WX    TMP DP  RH WIND       PRES   REMARKS
PADUCAH        PTCLDY    57  54  89 CALM      30.18S
HENDERSON      CLEAR     54  53  97 S5        30.17S
OWENSBORO      CLEAR     59  55  87 W3        30.17R
HOPKINSVILLE   PTCLDY    59  54  84 W3        30.17S
BOWLING GREEN  CLEAR     58  57  97 CALM      30.17S
GLASGOW        CLEAR    N/A N/A N/A CALM      30.17S
$$

KYZ024-025-028>034-038-045-046-053-251000-
NORTH CENTRAL KENTUCKY

CITY           SKY/WX    TMP DP  RH WIND       PRES   REMARKS
LOUISVILLE/SDF CLEAR     62  52  69 SW3       30.14R
LOUISVILLE/LOU CLEAR     59  56  89 CALM      30.15R
FORT KNOX      CLEAR     53  53  99 CALM      30.14R
$$

KYZ035>037-039>044-047>052-055>060-089>105-251000-
NORTHEAST KENTUCKY

CITY           SKY/WX    TMP DP  RH WIND       PRES   REMARKS
LEXINGTON      CLEAR     58  53  84 S3        30.15R
COVINGTON      CLEAR     52  51  97 S5        30.11R
FRANKFORT      CLEAR     57  52  83 CALM      30.13R
$$

KYZ054-064>069-076>088-106>120-251000-
SOUTHEAST KENTUCKY

CITY           SKY/WX    TMP DP  RH WIND       PRES   REMARKS
JACKSON        MOCLDY    63  55  75 NW5       30.14S
LONDON         PTCLDY    60  57  89 CALM      30.16R
SOMERSET       CLEAR     57  57 100 CALM      30.18R
MIDDLESBORO    CLOUDY    59  59 100 CALM      30.16S
MONTICELLO     MOSUNNY   59  58  96 NW9       30.19R
$$





USA.gov is the U.S. government's official web portal to all federal, state and local government web resources and services.